Location: Unspecified
(0.0000°N, 0.0000°E)
Time: 19:03:08
(UTC+00:00)

Courier 1B - Pass Details

Date: 22 November 2019
Orbit: 963 x 1209 km, 28.3° (Epoch: 06 December)

Event Time Altitude Azimuth Distance (km) Brightness Sun altitude
Rises 12:59:39 0° 293° (WNW) 3,630 10.6 63.0°
Reaches altitude 10° 13:02:18 10° 289° (WNW) 2,694 10.1 62.6°
Maximum altitude 13:08:41 60° 210° (SSW) 1,114 10.7 61.5°
Drops below altitude 10° 13:15:23 10° 131° (SE) 2,812 10.0 60.3°
Sets 13:18:12 0° 127° (SE) 3,802 10.5 59.8°
